START_TIME,STEP,MOV.,M6,t_acc.,M7,t_acc.,M19,t_acc.,H36,t_acc.
1981-08-27 06:00:27.920 ,4,0,0.,12.0,0.,12.0,0.,12.0,0.,12.0
1981-08-27 06:00:39.920 ,4,0,0.,12.0,0.,12.0,0.,12.0,0.,12.0
1981-08-27 06:00:51.920 ,5,1,0.,12.0,0.,12.0,0.,12.0,0.,12.0
1981-08-27 06:01:03.920 ,5,1,0.,12.0,0.,12.0,0.,12.0,0.,12.0
1981-08-27 06:01:15.920 ,5,0,0.,12.0,0.,12.0,0.,12.0,0.,12.0
1981-08-27 06:01:27.920 ,5,0,0.,12.0,0.,12.0,0.,12.0,0.,12.0
1981-08-27 06:01:39.920 ,6,1,0.,12.0,0.,12.0,0.,12.0,0.,12.0
1981-08-27 06:01:51.920 ,6,1,0.,12.0,0.,12.0,0.,12.0,0.,12.0
1981-08-27 06:02:03.920 ,6,0,0.,12.0,0.,12.0,0.,12.0,0.,12.0
1981-08-27 06:02:15.920 ,6,0,0.,12.0,0.,12.0,0.,12.0,0.,12.0
1981-08-27 06:02:27.920 ,7,1,0.,12.0,0.,12.0,0.,12.0,0.,12.0
1981-08-27 06:02:39.920 ,7,1,0.,12.0,0.,12.0,0.,12.0,0.,12.0
1981-08-27 06:02:51.920 ,7,0,0.,12.0,0.,12.0,0.,12.0,0.,12.0
1981-08-27 06:03:03.920 ,7,0,0.,12.0,0.,12.0,0.,12.0,0.,12.0
1981-08-27 06:03:15.920 ,7,1,0.,12.0,0.,12.0,0.,12.0,0.,12.0
1981-08-27 06:03:27.920 ,7,1,0.,12.0,0.,12.0,0.,12.0,0.,12.0
1981-08-27 06:03:39.920 ,7,0,0.,12.0,0.,12.0,0.,12.0,0.,12.0
1981-08-27 06:03:51.920 ,7,0,0.,12.0,0.,12.0,0.,12.0,0.,12.0
1981-08-27 06:04:03.920 ,6,1,0.,12.0,0.,12.0,0.,12.0,0.,12.0
1981-08-27 06:04:15.920 ,6,1,0.,12.0,0.,12.0,0.,12.0,0.,12.0
1981-08-27 06:04:27.920 ,6,0,0.,12.0,0.,12.0,0.,12.0,0.,12.0
1981-08-27 06:04:39.920 ,6,0,0.,12.0,0.,12.0,0.,12.0,0.,12.0
1981-08-27 06:04:51.920 ,5,1,0.,12.0,0.,12.0,0.,12.0,0.,12.0
1981-08-27 06:05:03.920 ,5,1,0.,12.0,0.,12.0,0.,12.0,0.,12.0
1981-08-27 06:05:15.920 ,5,0,0.,12.0,0.,12.0,0.,12.0,0.,12.0
1981-08-27 06:05:27.920 ,5,0,0.,12.0,0.,12.0,0.,12.0,0.,12.0
1981-08-27 06:05:39.920 ,4,1,0.,12.0,0.,12.0,0.,12.0,0.,12.0
1981-08-27 06:05:51.920 ,4,1,0.,12.0,0.,12.0,0.,12.0,0.,12.0
1981-08-27 06:06:03.920 ,4,0,0.,12.0,0.,12.0,0.,12.0,0.,12.0
1981-08-27 06:06:15.920 ,4,0,0.,12.0,0.,12.0,0.,12.0,0.,12.0
1981-08-27 06:06:27.920 ,3,1,0.,12.0,0.,12.0,0.,12.0,0.,12.0
1981-08-27 06:06:39.920 ,3,1,0.,12.0,0.,12.0,0.,12.0,0.,12.0
1981-08-27 06:06:51.920 ,3,0,0.,12.0,0.,12.0,0.,12.0,0.,12.0
1981-08-27 06:07:03.920 ,3,0,0.,12.0,0.,12.0,0.,12.0,0.,12.0
1981-08-27 06:07:15.920 ,2,1,0.,12.0,0.,12.0,0.,12.0,0.,12.0
1981-08-27 06:07:27.920 ,2,1,0.,12.0,0.,12.0,0.,12.0,0.,12.0
1981-08-27 06:07:39.920 ,2,0,0.,12.0,0.,12.0,0.,12.0,0.,12.0
1981-08-27 06:07:51.920 ,2,0,0.,12.0,0.,12.0,0.,12.0,0.,12.0
1981-08-27 06:08:03.920 ,1,1,0.,12.0,0.,12.0,0.,12.0,0.,12.0
1981-08-27 06:08:15.920 ,1,1,0.,12.0,0.,12.0,0.,12.0,0.,12.0
1981-08-27 06:08:27.920 ,1,0,0.,12.0,0.,12.0,0.,12.0,0.,12.0
1981-08-27 06:08:39.920 ,1,0,0.,12.0,0.,12.0,0.,12.0,0.,12.0
1981-08-27 06:08:51.920 ,0,1,0.,12.0,0.,12.0,0.,12.0,0.,12.0
1981-08-27 06:09:03.920 ,0,1,0.,12.0,0.,12.0,0.,12.0,0.,12.0
1981-08-27 06:09:15.920 ,0,0,0.,12.0,0.,12.0,0.,12.0,0.,12.0
1981-08-27 06:09:27.920 ,0,0,0.,12.0,0.,12.0,0.,12.0,0.,12.0
1981-08-27 06:09:39.920 ,0,1,0.,12.0,0.,12.0,0.,12.0,0.,12.0
1981-08-27 06:09:51.920 ,0,1,0.,12.0,0.,12.0,0.,12.0,0.,12.0
1981-08-27 06:10:03.920 ,0,0,0.,12.0,0.,12.0,0.,12.0,0.,12.0
1981-08-27 06:10:15.920 ,0,0,0.,12.0,0.,12.0,0.,12.0,0.,12.0
1981-08-27 06:10:27.920 ,1,1,0.,12.0,0.,12.0,0.,12.0,0.,12.0
1981-08-27 06:10:39.920 ,1,1,0.,12.0,0.,12.0,0.,12.0,0.,12.0
1981-08-27 06:10:51.920 ,1,0,0.,12.0,0.,12.0,0.,12.0,0.,12.0
1981-08-27 06:11:03.920 ,1,0,0.,12.0,0.,12.0,0.,12.0,0.,12.0
1981-08-27 06:11:15.920 ,2,1,0.,12.0,0.,12.0,0.,12.0,0.,12.0
1981-08-27 06:11:27.920 ,2,1,0.,12.0,0.,12.0,0.,12.0,0.,12.0
1981-08-27 06:11:39.920 ,2,0,0.,12.0,0.,12.0,0.,12.0,0.,12.0
1981-08-27 06:11:51.920 ,2,0,0.,12.0,0.,12.0,0.,12.0,0.,12.0
1981-08-27 06:12:03.920 ,3,1,0.,12.0,0.,12.0,0.,12.0,0.,12.0
1981-08-27 06:12:15.920 ,3,1,0.,12.0,0.,12.0,0.,12.0,0.,12.0
1981-08-27 06:12:27.920 ,3,0,0.,12.0,0.,12.0,0.,12.0,0.,12.0
1981-08-27 06:12:39.920 ,3,0,0.,12.0,0.,12.0,0.,12.0,0.,12.0
1981-08-27 06:12:51.920 ,4,1,0.,12.0,0.,12.0,0.,12.0,0.,12.0
1981-08-27 06:13:03.920 ,4,1,0.,12.0,0.,12.0,0.,12.0,0.,12.0
1981-08-27 06:13:15.920 ,4,0,0.,12.0,0.,12.0,0.,12.0,0.,12.0
1981-08-27 06:13:27.920 ,4,0,0.,12.0,0.,12.0,0.,12.0,0.,12.0
1981-08-27 06:13:39.920 ,5,1,0.,12.0,0.,12.0,0.,12.0,0.,12.0
1981-08-27 06:13:51.920 ,5,1,0.,12.0,0.,12.0,0.,12.0,0.,12.0
1981-08-27 06:14:03.920 ,5,0,0.,12.0,0.,12.0,0.,12.0,0.,12.0
1981-08-27 06:14:15.920 ,5,0,0.,12.0,0.,12.0,0.,12.0,0.,12.0
1981-08-27 06:14:27.920 ,6,1,0.,12.0,0.,12.0,0.,12.0,0.,12.0
1981-08-27 06:14:39.920 ,6,1,0.,12.0,0.,12.0,0.,12.0,0.,12.0
1981-08-27 06:14:51.920 ,6,0,0.,12.0,0.,12.0,0.,12.0,0.,12.0
1981-08-27 06:15:03.920 ,6,0,0.,12.0,0.,12.0,0.,12.0,0.,12.0
1981-08-27 06:15:15.920 ,7,1,0.,12.0,0.,12.0,0.,12.0,0.,12.0
1981-08-27 06:15:27.920 ,7,1,0.,12.0,0.,12.0,0.,12.0,0.,12.0
1981-08-27 06:15:39.920 ,7,0,0.,12.0,0.,12.0,0.,12.0,0.,12.0
1981-08-27 06:15:51.920 ,7,0,0.,12.0,0.,12.0,0.,12.0,0.,12.0
1981-08-27 06:16:03.920 ,7,1,0.,12.0,0.,12.0,0.,12.0,0.,12.0
1981-08-27 06:16:15.920 ,7,1,0.,12.0,0.,12.0,0.,12.0,0.,12.0
1981-08-27 06:16:27.920 ,7,0,0.,12.0,0.,12.0,0.,12.0,0.,12.0
1981-08-27 06:16:39.920 ,7,0,0.,12.0,0.,12.0,0.,12.0,0.,12.0
1981-08-27 06:16:51.910 ,6,1,0.,12.0,0.,12.0,0.,12.0,0.,12.0
1981-08-27 06:17:03.920 ,6,1,0.,12.0,0.,12.0,0.,12.0,0.,12.0
1981-08-27 06:17:15.910 ,6,0,0.,12.0,0.,12.0,0.,12.0,0.,12.0
1981-08-27 06:17:27.910 ,6,0,0.,12.0,0.,12.0,0.,12.0,0.,12.0
1981-08-27 06:17:39.910 ,5,1,0.,12.0,0.,12.0,0.,12.0,0.,12.0
1981-08-27 06:17:51.910 ,5,1,0.,12.0,0.,12.0,0.,12.0,0.,12.0
1981-08-27 06:18:03.910 ,5,0,0.,12.0,0.,12.0,0.,12.0,0.,12.0
1981-08-27 06:18:15.910 ,5,0,0.,12.0,0.,12.0,0.,12.0,0.,12.0
1981-08-27 06:18:27.910 ,4,1,0.,12.0,0.,12.0,0.,12.0,0.,12.0
1981-08-27 06:18:39.910 ,4,1,0.,12.0,0.,12.0,0.,12.0,0.,12.0
1981-08-27 06:18:51.910 ,4,0,0.,12.0,0.,12.0,0.,12.0,0.,12.0
1981-08-27 06:19:03.910 ,4,0,0.,12.0,0.,12.0,0.,12.0,0.,12.0
1981-08-27 06:19:15.910 ,3,1,0.,12.0,0.,12.0,0.,12.0,0.,12.0
1981-08-27 06:19:27.910 ,3,1,0.,12.0,0.,12.0,0.,12.0,0.,12.0
1981-08-27 06:19:39.910 ,3,0,0.,12.0,0.,12.0,0.,12.0,0.,12.0
1981-08-27 06:19:51.910 ,3,0,0.,12.0,0.,12.0,0.,12.0,0.,12.0
1981-08-27 06:20:03.910 ,2,1,0.,12.0,0.,12.0,0.,12.0,0.,12.0
1981-08-27 06:20:15.910 ,2,1,0.,12.0,0.,12.0,0.,12.0,0.,12.0
1981-08-27 06:20:27.910 ,2,0,0.,12.0,0.,12.0,0.,12.0,0.,12.0
1981-08-27 06:20:39.910 ,2,0,0.,12.0,0.,12.0,0.,12.0,0.,12.0
1981-08-27 06:20:51.910 ,1,1,0.,12.0,0.,12.0,0.,12.0,0.,12.0
1981-08-27 06:21:03.910 ,1,1,0.,12.0,0.,12.0,0.,12.0,0.,12.0
1981-08-27 06:21:15.910 ,1,0,0.,12.0,0.,12.0,0.,12.0,0.,12.0
1981-08-27 06:21:27.910 ,1,0,0.,12.0,0.,12.0,0.,12.0,0.,12.0
1981-08-27 06:21:39.910 ,0,1,0.,12.0,0.,12.0,0.,12.0,0.,12.0
1981-08-27 06:21:51.910 ,0,1,0.,12.0,0.,12.0,0.,12.0,0.,12.0
1981-08-27 06:22:03.910 ,0,0,0.,12.0,0.,12.0,0.,12.0,0.,12.0
1981-08-27 06:22:15.910 ,0,0,0.,12.0,0.,12.0,0.,12.0,0.,12.0
1981-08-27 06:22:27.910 ,0,1,0.,12.0,0.,12.0,0.,12.0,0.,12.0
1981-08-27 06:22:39.910 ,0,1,0.,12.0,0.,12.0,0.,12.0,0.,12.0
1981-08-27 06:22:51.910 ,0,0,0.,12.0,0.,12.0,0.,12.0,0.,12.0
1981-08-27 06:23:03.910 ,0,0,0.,12.0,0.,12.0,0.,12.0,0.,12.0
1981-08-27 06:23:15.910 ,1,1,0.,12.0,0.,12.0,0.,12.0,0.,12.0
1981-08-27 06:23:27.910 ,1,1,0.,12.0,0.,12.0,0.,12.0,0.,12.0
1981-08-27 06:23:39.910 ,1,0,0.,12.0,0.,12.0,0.,12.0,0.,12.0
1981-08-27 06:23:51.910 ,1,0,0.,12.0,0.,12.0,0.,12.0,0.,12.0
1981-08-27 06:24:03.910 ,2,1,0.,12.0,0.,12.0,0.,12.0,0.,12.0
1981-08-27 06:24:15.910 ,2,1,0.,12.0,0.,12.0,0.,12.0,0.,12.0
1981-08-27 06:24:27.910 ,2,0,0.,12.0,0.,12.0,0.,12.0,0.,12.0
1981-08-27 06:24:39.910 ,2,0,0.,12.0,0.,12.0,0.,12.0,0.,12.0
1981-08-27 06:24:51.910 ,3,1,0.,12.0,0.,12.0,0.,12.0,0.,12.0
1981-08-27 06:25:03.910 ,3,1,0.,12.0,0.,12.0,0.,12.0,0.,12.0
1981-08-27 06:25:15.910 ,3,0,0.,12.0,0.,12.0,0.,12.0,0.,12.0
1981-08-27 06:25:27.910 ,3,0,0.,12.0,0.,12.0,0.,12.0,0.,12.0
1981-08-27 06:25:39.910 ,4,1,0.,12.0,0.,12.0,0.,12.0,0.,12.0
1981-08-27 06:25:51.910 ,4,1,0.,12.0,0.,12.0,0.,12.0,0.,12.0
1981-08-27 06:26:03.910 ,4,0,0.,12.0,0.,12.0,0.,12.0,0.,12.0
1981-08-27 06:26:15.910 ,4,0,0.,12.0,0.,12.0,0.,12.0,0.,12.0
1981-08-27 06:26:27.910 ,5,1,0.,12.0,0.,12.0,0.,12.0,0.,12.0
1981-08-27 06:26:39.910 ,5,1,0.,12.0,0.,12.0,0.,12.0,0.,12.0
1981-08-27 06:26:51.910 ,5,0,0.,12.0,0.,12.0,0.,12.0,0.,12.0
1981-08-27 06:27:03.910 ,5,0,0.,12.0,0.,12.0,0.,12.0,0.,12.0
1981-08-27 06:27:15.910 ,6,1,0.,12.0,0.,12.0,0.,12.0,0.,12.0
1981-08-27 06:27:27.910 ,6,1,0.,12.0,0.,12.0,0.,12.0,0.,12.0
1981-08-27 06:27:39.910 ,6,0,0.,12.0,0.,12.0,0.,12.0,0.,12.0
1981-08-27 06:27:51.910 ,6,0,0.,12.0,0.,12.0,0.,12.0,0.,12.0
1981-08-27 06:28:03.910 ,7,1,0.,12.0,0.,12.0,0.,12.0,0.,12.0
1981-08-27 06:28:15.910 ,7,1,0.,12.0,0.,12.0,0.,12.0,0.,12.0
1981-08-27 06:28:27.910 ,7,0,0.,12.0,0.,12.0,0.,12.0,0.,12.0
1981-08-27 06:28:39.910 ,7,0,0.,12.0,0.,12.0,0.,12.0,0.,12.0
1981-08-27 06:28:51.910 ,7,1,0.,12.0,0.,12.0,0.,12.0,0.,12.0
1981-08-27 06:29:03.910 ,7,1,0.,12.0,0.,12.0,0.,12.0,0.,12.0
1981-08-27 06:29:15.910 ,7,0,0.,12.0,0.,12.0,0.,12.0,0.,12.0
1981-08-27 06:29:27.910 ,7,0,0.,12.0,0.,12.0,0.,12.0,0.,12.0
1981-08-27 06:29:39.910 ,6,1,0.,12.0,0.,12.0,0.,12.0,0.,12.0
1981-08-27 06:29:51.910 ,6,1,0.,12.0,0.,12.0,0.,12.0,0.,12.0
1981-08-27 06:30:03.910 ,6,0,0.,12.0,0.,12.0,0.,12.0,0.,12.0
1981-08-27 06:30:15.910 ,6,0,0.,12.0,0.,12.0,0.,12.0,0.,12.0
1981-08-27 06:30:27.910 ,5,1,0.,12.0,0.,12.0,0.,12.0,0.,12.0
1981-08-27 06:30:39.910 ,5,1,0.,12.0,0.,12.0,0.,12.0,0.,12.0
1981-08-27 06:30:27.910 ,5,1,0.,12.0,0.,12.0,0.,12.0,0.,12.0
1981-08-27 06:30:39.910 ,5,1,0.,12.0,0.,12.0,0.,12.0,0.,12.0
1981-08-27 06:30:51.910 ,5,0,0.,12.0,0.,12.0,0.,12.0,0.,12.0
1981-08-27 06:31:03.910 ,5,0,0.,12.0,0.,12.0,0.,12.0,0.,12.0
1981-08-27 06:31:15.910 ,4,1,0.,12.0,0.,12.0,0.,12.0,0.,12.0
1981-08-27 06:31:27.910 ,4,1,0.,12.0,0.,12.0,0.,12.0,0.,12.0
1981-08-27 06:31:39.910 ,4,0,0.,12.0,0.,12.0,0.,12.0,0.,12.0
1981-08-27 06:31:51.910 ,4,0,0.,12.0,0.,12.0,0.,12.0,0.,12.0
1981-08-27 06:32:03.910 ,3,1,0.,12.0,0.,12.0,0.,12.0,0.,12.0
1981-08-27 06:32:15.910 ,3,1,0.,12.0,0.,12.0,0.,12.0,0.,12.0
1981-08-27 06:32:27.910 ,3,0,0.,12.0,0.,12.0,0.,12.0,0.,12.0
1981-08-27 06:32:39.910 ,3,0,0.,12.0,0.,12.0,0.,12.0,0.,12.0
1981-08-27 06:32:51.910 ,2,1,0.,12.0,0.,12.0,0.,12.0,0.,12.0
1981-08-27 06:33:03.910 ,2,1,0.,12.0,0.,12.0,0.,12.0,0.,12.0
1981-08-27 06:33:15.910 ,2,0,0.,12.0,0.,12.0,0.,12.0,0.,12.0
1981-08-27 06:33:27.910 ,2,0,0.,12.0,0.,12.0,0.,12.0,0.,12.0
1981-08-27 06:33:39.910 ,1,1,0.,12.0,0.,12.0,0.,12.0,0.,12.0
1981-08-27 06:33:51.910 ,1,1,0.,12.0,0.,12.0,0.,12.0,0.,12.0
1981-08-27 06:34:03.910 ,1,0,0.,12.0,0.,12.0,0.,12.0,0.,12.0
1981-08-27 06:34:15.910 ,1,0,0.,12.0,0.,12.0,0.,12.0,0.,12.0
1981-08-27 06:34:27.910 ,0,1,0.,12.0,0.,12.0,0.,12.0,0.,12.0
1981-08-27 06:34:39.910 ,0,1,0.,12.0,0.,12.0,0.,12.0,0.,12.0
1981-08-27 06:34:51.910 ,0,0,0.,12.0,0.,12.0,0.,12.0,0.,12.0
1981-08-27 06:35:03.910 ,0,0,0.,12.0,0.,12.0,0.,12.0,0.,12.0
1981-08-27 06:35:15.910 ,0,1,0.,12.0,0.,12.0,0.,12.0,0.,12.0
1981-08-27 06:35:27.910 ,0,1,0.,12.0,0.,12.0,0.,12.0,0.,12.0
1981-08-27 06:35:39.910 ,0,0,0.,12.0,0.,12.0,0.,12.0,0.,12.0
1981-08-27 06:35:51.910 ,0,0,0.,12.0,0.,12.0,0.,12.0,0.,12.0
1981-08-27 06:36:03.910 ,1,1,0.,12.0,0.,12.0,0.,12.0,0.,12.0
1981-08-27 06:36:15.910 ,1,1,0.,12.0,0.,12.0,0.,12.0,0.,12.0
1981-08-27 06:36:27.910 ,1,0,0.,12.0,0.,12.0,0.,12.0,0.,12.0
1981-08-27 06:36:39.910 ,1,0,0.,12.0,0.,12.0,0.,12.0,0.,12.0
1981-08-27 06:36:51.910 ,2,1,0.,12.0,0.,12.0,0.,12.0,0.,12.0
1981-08-27 06:37:03.910 ,2,1,0.,12.0,0.,12.0,0.,12.0,0.,12.0
1981-08-27 06:37:15.910 ,2,0,0.,12.0,0.,12.0,0.,12.0,0.,12.0
1981-08-27 06:37:27.910 ,2,0,0.,12.0,0.,12.0,0.,12.0,0.,12.0
1981-08-27 06:37:39.910 ,3,1,0.,12.0,0.,12.0,0.,12.0,0.,12.0
1981-08-27 06:37:51.910 ,3,1,0.,12.0,0.,12.0,0.,12.0,0.,12.0
1981-08-27 06:38:03.910 ,3,0,0.,12.0,0.,12.0,0.,12.0,0.,12.0
1981-08-27 06:38:15.910 ,3,0,0.,12.0,0.,12.0,0.,12.0,0.,12.0
1981-08-27 06:38:27.910 ,4,1,0.,12.0,0.,12.0,0.,12.0,0.,12.0
1981-08-27 06:38:39.910 ,4,1,0.,12.0,0.,12.0,0.,12.0,0.,12.0
1981-08-27 06:38:51.910 ,4,0,0.,12.0,0.,12.0,0.,12.0,0.,12.0
1981-08-27 06:39:03.910 ,4,0,0.,12.0,0.,12.0,0.,12.0,0.,12.0
1981-08-27 06:39:15.910 ,5,1,0.,12.0,0.,12.0,0.,12.0,0.,12.0
1981-08-27 06:39:27.910 ,5,1,0.,12.0,0.,12.0,0.,12.0,0.,12.0
1981-08-27 06:39:39.910 ,5,0,0.,12.0,0.,12.0,0.,12.0,0.,12.0
1981-08-27 06:39:51.910 ,5,0,0.,12.0,0.,12.0,0.,12.0,0.,12.0
1981-08-27 06:40:03.910 ,6,1,0.,12.0,0.,12.0,0.,12.0,0.,12.0
1981-08-27 06:40:15.910 ,6,1,0.,12.0,0.,12.0,0.,12.0,0.,12.0
1981-08-27 06:40:27.910 ,6,0,0.,12.0,0.,12.0,0.,12.0,0.,12.0
1981-08-27 06:40:39.910 ,6,0,0.,12.0,0.,12.0,0.,12.0,0.,12.0
1981-08-27 06:40:51.910 ,7,1,0.,12.0,0.,12.0,0.,12.0,0.,12.0
1981-08-27 06:41:03.910 ,7,1,0.,12.0,0.,12.0,0.,12.0,0.,12.0
1981-08-27 06:41:15.910 ,7,0,0.,12.0,0.,12.0,0.,12.0,0.,12.0
1981-08-27 06:41:27.910 ,7,0,0.,12.0,0.,12.0,0.,12.0,0.,12.0
1981-08-27 06:41:39.910 ,7,1,0.,12.0,0.,12.0,0.,12.0,0.,12.0
1981-08-27 06:41:51.910 ,7,1,0.,12.0,0.,12.0,0.,12.0,0.,12.0
1981-08-27 06:42:03.910 ,7,0,0.,12.0,0.,12.0,0.,12.0,0.,12.0
1981-08-27 06:42:15.910 ,7,0,0.,12.0,0.,12.0,0.,12.0,0.,12.0
1981-08-27 06:42:27.910 ,6,1,0.,12.0,0.,12.0,0.,12.0,0.,12.0
1981-08-27 06:42:39.910 ,6,1,0.,12.0,0.,12.0,0.,12.0,0.,12.0
1981-08-27 06:42:51.910 ,6,0,0.,12.0,0.,12.0,0.,12.0,0.,12.0
1981-08-27 06:43:03.910 ,6,0,0.,12.0,0.,12.0,0.,12.0,0.,12.0
1981-08-27 06:43:15.910 ,5,1,0.,12.0,0.,12.0,0.,12.0,0.,12.0
1981-08-27 06:43:27.910 ,5,1,0.,12.0,0.,12.0,0.,12.0,0.,12.0
1981-08-27 06:43:39.910 ,5,0,0.,12.0,0.,12.0,0.,12.0,0.,12.0
1981-08-27 06:43:51.910 ,5,0,0.,12.0,0.,12.0,0.,12.0,0.,12.0
1981-08-27 06:44:03.910 ,4,1,0.,12.0,0.,12.0,0.,12.0,0.,12.0
1981-08-27 06:44:15.910 ,4,1,0.,12.0,0.,12.0,0.,12.0,0.,12.0
1981-08-27 06:44:27.910 ,4,0,0.,12.0,0.,12.0,0.,12.0,0.,12.0
1981-08-27 06:44:39.910 ,4,0,0.,12.0,0.,12.0,0.,12.0,0.,12.0
1981-08-27 06:44:51.910 ,3,1,0.,12.0,0.,12.0,0.,12.0,0.,12.0
1981-08-27 06:45:03.910 ,3,1,0.,12.0,0.,12.0,0.,12.0,0.,12.0
1981-08-27 06:45:15.910 ,3,0,0.,12.0,0.,12.0,0.,12.0,0.,12.0
1981-08-27 06:45:27.910 ,3,0,0.,12.0,0.,12.0,0.,12.0,0.,12.0
1981-08-27 06:45:39.910 ,2,1,0.,12.0,0.,12.0,0.,12.0,0.,12.0
1981-08-27 06:45:51.910 ,2,1,0.,12.0,0.,12.0,0.,12.0,0.,12.0
1981-08-27 06:46:03.910 ,2,0,0.,12.0,0.,12.0,0.,12.0,0.,12.0
1981-08-27 06:46:15.910 ,2,0,0.,12.0,0.,12.0,0.,12.0,0.,12.0
1981-08-27 06:46:27.910 ,1,1,0.,12.0,0.,12.0,0.,12.0,0.,12.0
1981-08-27 06:46:39.910 ,1,1,0.,12.0,0.,12.0,0.,12.0,0.,12.0
1981-08-27 06:46:51.910 ,1,0,0.,12.0,0.,12.0,0.,12.0,0.,12.0
1981-08-27 06:47:03.910 ,1,0,0.,12.0,0.,12.0,0.,12.0,0.,12.0
1981-08-27 06:47:15.910 ,0,1,0.,12.0,0.,12.0,0.,12.0,0.,12.0
1981-08-27 06:47:27.910 ,0,1,0.,12.0,0.,12.0,0.,12.0,0.,12.0
1981-08-27 06:47:39.910 ,0,0,0.,12.0,0.,12.0,0.,12.0,0.,12.0
1981-08-27 06:47:51.910 ,0,0,0.,12.0,0.,12.0,0.,12.0,0.,12.0
1981-08-27 06:48:03.910 ,0,1,0.,12.0,0.,12.0,0.,12.0,0.,12.0
1981-08-27 06:48:15.910 ,0,1,0.,12.0,0.,12.0,0.,12.0,0.,12.0
1981-08-27 06:48:27.910 ,0,0,0.,12.0,0.,12.0,0.,12.0,0.,12.0
1981-08-27 06:48:39.910 ,0,0,0.,12.0,0.,12.0,0.,12.0,0.,12.0
1981-08-27 06:48:51.910 ,1,1,0.,12.0,0.,12.0,0.,12.0,0.,12.0
1981-08-27 06:49:03.910 ,1,1,0.,12.0,0.,12.0,0.,12.0,0.,12.0
1981-08-27 06:49:15.910 ,1,0,0.,12.0,0.,12.0,0.,12.0,0.,12.0
1981-08-27 06:49:27.910 ,1,0,0.,12.0,0.,12.0,0.,12.0,0.,12.0
1981-08-27 06:49:39.910 ,2,1,0.,12.0,0.,12.0,0.,12.0,0.,12.0
1981-08-27 06:49:51.910 ,2,1,0.,12.0,0.,12.0,0.,12.0,0.,12.0
1981-08-27 06:50:03.910 ,2,0,0.,12.0,0.,12.0,0.,12.0,0.,12.0
1981-08-27 06:50:15.910 ,2,0,0.,12.0,0.,12.0,0.,12.0,0.,12.0
1981-08-27 06:50:27.910 ,3,1,0.,12.0,0.,12.0,0.,12.0,0.,12.0
1981-08-27 06:50:39.910 ,3,1,0.,12.0,0.,12.0,0.,12.0,0.,12.0
1981-08-27 06:50:51.910 ,3,0,0.,12.0,0.,12.0,0.,12.0,0.,12.0
1981-08-27 06:51:03.910 ,3,0,0.,12.0,0.,12.0,0.,12.0,0.,12.0
1981-08-27 06:51:15.910 ,4,1,0.,12.0,0.,12.0,0.,12.0,0.,12.0
1981-08-27 06:51:27.910 ,4,1,0.,12.0,0.,12.0,0.,12.0,0.,12.0
1981-08-27 06:51:39.910 ,4,0,0.,12.0,0.,12.0,0.,12.0,0.,12.0
1981-08-27 06:51:51.910 ,4,0,0.,12.0,0.,12.0,0.,12.0,0.,12.0
1981-08-27 06:52:03.910 ,5,1,0.,12.0,0.,12.0,0.,12.0,0.,12.0
1981-08-27 06:52:15.910 ,5,1,0.,12.0,0.,12.0,0.,12.0,0.,12.0
1981-08-27 06:52:27.910 ,5,0,0.,12.0,0.,12.0,0.,12.0,0.,12.0
1981-08-27 06:52:39.910 ,5,0,0.,12.0,0.,12.0,0.,12.0,0.,12.0
1981-08-27 06:52:51.910 ,6,1,0.,12.0,0.,12.0,0.,12.0,0.,12.0
1981-08-27 06:53:03.910 ,6,1,0.,12.0,0.,12.0,0.,12.0,0.,12.0
1981-08-27 06:53:15.910 ,6,0,0.,12.0,0.,12.0,0.,12.0,0.,12.0
1981-08-27 06:53:27.910 ,6,0,0.,12.0,0.,12.0,0.,12.0,0.,12.0
1981-08-27 06:53:39.910 ,7,1,0.,12.0,0.,12.0,0.,12.0,0.,12.0
1981-08-27 06:53:51.910 ,7,1,0.,12.0,0.,12.0,0.,12.0,0.,12.0
1981-08-27 06:54:03.910 ,7,0,0.,12.0,0.,12.0,0.,12.0,0.,12.0
1981-08-27 06:54:15.910 ,7,0,0.,12.0,0.,12.0,0.,12.0,0.,12.0
1981-08-27 06:54:27.910 ,7,1,0.,12.0,0.,12.0,0.,12.0,0.,12.0
1981-08-27 06:54:39.910 ,7,1,0.,12.0,0.,12.0,0.,12.0,0.,12.0
1981-08-27 06:54:51.910 ,7,0,0.,12.0,0.,12.0,0.,12.0,0.,12.0
1981-08-27 06:55:03.910 ,7,0,0.,12.0,0.,12.0,0.,12.0,0.,12.0
1981-08-27 06:55:15.910 ,6,1,0.,12.0,0.,12.0,0.,12.0,0.,12.0
1981-08-27 06:55:27.910 ,6,1,0.,12.0,0.,12.0,0.,12.0,0.,12.0
1981-08-27 06:55:39.910 ,6,0,0.,12.0,0.,12.0,0.,12.0,0.,12.0
1981-08-27 06:55:51.910 ,6,0,0.,12.0,0.,12.0,0.,12.0,0.,12.0
1981-08-27 06:56:03.910 ,5,1,0.,12.0,0.,12.0,0.,12.0,0.,12.0
1981-08-27 06:56:15.910 ,5,1,0.,12.0,0.,12.0,0.,12.0,0.,12.0
1981-08-27 06:56:27.910 ,0,0,0.,12.0,0.,12.0,0.,12.0,0.,12.0
1981-08-27 06:56:39.910 ,0,0,0.,12.0,0.,12.0,0.,12.0,0.,12.0
1981-08-27 06:58:27.910 ,0,0,,0,,0,,0,,0
1981-08-27 06:58:39.910 ,0,0,,0,,0,,0,,0
1981-08-27 06:58:51.910 ,0,0,0.,12.0,0.,12.0,0.,12.0,0.,12.0
1981-08-27 06:59:03.910 ,0,0,0.,12.0,0.,12.0,0.,12.0,0.,12.0
1981-08-27 06:59:15.910 ,1,1,0.,12.0,0.,12.0,0.,12.0,0.,12.0
1981-08-27 06:59:27.910 ,1,1,0.,12.0,0.,12.0,0.,12.0,0.,12.0
1981-08-27 06:59:39.910 ,1,0,0.,12.0,0.,12.0,0.,12.0,0.,12.0
1981-08-27 06:59:51.910 ,1,0,0.,12.0,0.,12.0,0.,12.0,0.,12.0
1981-08-27 07:00:03.910 ,0,1,0.,12.0,0.,12.0,0.,12.0,0.,12.0
1981-08-27 07:00:15.910 ,0,1,0.,12.0,0.,12.0,0.,12.0,0.,12.0
1981-08-27 07:00:27.910 ,0,0,0.,12.0,0.,12.0,0.,12.0,0.,12.0
1981-08-27 07:00:39.910 ,0,0,0.,12.0,0.,12.0,0.,12.0,0.,12.0
1981-08-27 07:00:51.910 ,0,1,0.,12.0,0.,12.0,0.,12.0,0.,12.0
1981-08-27 07:01:03.910 ,0,1,0.,12.0,0.,12.0,0.,12.0,0.,12.0
1981-08-27 07:01:15.910 ,0,0,0.,12.0,0.,12.0,0.,12.0,0.,12.0
1981-08-27 07:01:27.910 ,0,0,0.,12.0,0.,12.0,0.,12.0,0.,12.0
1981-08-27 07:01:39.910 ,1,1,0.,12.0,0.,12.0,0.,12.0,0.,12.0
1981-08-27 07:01:51.910 ,1,1,0.,12.0,0.,12.0,0.,12.0,0.,12.0
1981-08-27 07:02:03.910 ,1,0,0.,12.0,0.,12.0,0.,12.0,0.,12.0
1981-08-27 07:02:15.910 ,1,0,0.,12.0,0.,12.0,0.,12.0,0.,12.0
1981-08-27 07:02:27.910 ,2,1,0.,12.0,0.,12.0,0.,12.0,0.,12.0
1981-08-27 07:02:39.910 ,2,1,0.,12.0,0.,12.0,0.,12.0,0.,12.0
1981-08-27 07:02:51.910 ,2,0,0.,12.0,0.,12.0,0.,12.0,0.,12.0
1981-08-27 07:03:03.910 ,2,0,0.,12.0,0.,12.0,0.,12.0,0.,12.0
1981-08-27 07:03:15.910 ,3,1,0.,12.0,0.,12.0,0.,12.0,0.,12.0
1981-08-27 07:03:27.910 ,3,1,0.,12.0,0.,12.0,0.,12.0,0.,12.0
1981-08-27 07:03:39.910 ,3,0,0.,12.0,0.,12.0,0.,12.0,0.,12.0
1981-08-27 07:03:51.910 ,3,0,0.,12.0,0.,12.0,0.,12.0,0.,12.0
1981-08-27 07:04:03.910 ,4,1,0.,12.0,0.,12.0,0.,12.0,0.,12.0
1981-08-27 07:04:15.910 ,4,1,0.,12.0,0.,12.0,0.,12.0,0.,12.0
1981-08-27 07:04:27.910 ,4,0,0.,12.0,0.,12.0,0.,12.0,0.,12.0
1981-08-27 07:04:39.910 ,4,0,0.,12.0,0.,12.0,0.,12.0,0.,12.0
1981-08-27 07:04:51.910 ,5,1,0.,12.0,0.,12.0,0.,12.0,0.,12.0
1981-08-27 07:05:03.910 ,5,1,0.,12.0,0.,12.0,0.,12.0,0.,12.0
1981-08-27 07:05:15.910 ,5,0,0.,12.0,0.,12.0,0.,12.0,0.,12.0
1981-08-27 07:05:27.910 ,5,0,0.,12.0,0.,12.0,0.,12.0,0.,12.0
1981-08-27 07:05:39.910 ,6,1,0.,12.0,0.,12.0,0.,12.0,0.,12.0
1981-08-27 07:05:51.910 ,6,1,0.,12.0,0.,12.0,0.,12.0,0.,12.0
1981-08-27 07:06:03.910 ,6,0,0.,12.0,0.,12.0,0.,12.0,0.,12.0
1981-08-27 07:06:15.910 ,6,0,0.,12.0,0.,12.0,0.,12.0,0.,12.0
1981-08-27 07:06:27.910 ,7,1,0.,12.0,0.,12.0,0.,12.0,0.,12.0
1981-08-27 07:06:39.910 ,7,1,0.,12.0,0.,12.0,0.,12.0,0.,12.0
1981-08-27 07:06:51.910 ,7,0,0.,12.0,0.,12.0,0.,12.0,0.,12.0
1981-08-27 07:07:03.910 ,7,0,0.,12.0,0.,12.0,0.,12.0,0.,12.0
1981-08-27 07:07:15.910 ,7,1,0.,12.0,0.,12.0,0.,12.0,0.,12.0
1981-08-27 07:07:27.910 ,7,1,0.,12.0,0.,12.0,0.,12.0,0.,12.0
1981-08-27 07:07:39.910 ,7,0,0.,12.0,0.,12.0,0.,12.0,0.,12.0
1981-08-27 07:07:51.910 ,7,0,0.,12.0,0.,12.0,0.,12.0,0.,12.0
1981-08-27 07:08:03.910 ,6,1,0.,12.0,0.,12.0,0.,12.0,0.,12.0
1981-08-27 07:08:15.910 ,6,1,0.,12.0,0.,12.0,0.,12.0,0.,12.0
1981-08-27 07:08:27.910 ,6,0,0.,12.0,0.,12.0,0.,12.0,0.,12.0
1981-08-27 07:08:39.910 ,6,0,0.,12.0,0.,12.0,0.,12.0,0.,12.0
1981-08-27 07:08:51.910 ,5,1,0.,12.0,0.,12.0,0.,12.0,0.,12.0
1981-08-27 07:09:03.910 ,5,1,0.,12.0,0.,12.0,0.,12.0,0.,12.0
1981-08-27 07:09:15.910 ,5,0,0.,12.0,0.,12.0,0.,12.0,0.,12.0
1981-08-27 07:09:27.910 ,5,0,0.,12.0,0.,12.0,0.,12.0,0.,12.0
1981-08-27 07:09:39.910 ,4,1,0.,12.0,0.,12.0,0.,12.0,0.,12.0
1981-08-27 07:09:51.910 ,4,1,0.,12.0,0.,12.0,0.,12.0,0.,12.0
1981-08-27 07:10:03.910 ,4,0,0.,12.0,0.,12.0,0.,12.0,0.,12.0
1981-08-27 07:10:15.910 ,4,0,0.,12.0,0.,12.0,0.,12.0,0.,12.0
1981-08-27 07:10:27.910 ,3,1,0.,12.0,0.,12.0,0.,12.0,0.,12.0
1981-08-27 07:10:39.910 ,3,1,0.,12.0,0.,12.0,0.,12.0,0.,12.0
1981-08-27 07:10:51.910 ,3,0,0.,12.0,0.,12.0,0.,12.0,0.,12.0
1981-08-27 07:11:03.910 ,3,0,0.,12.0,0.,12.0,0.,12.0,0.,12.0
1981-08-27 07:11:15.910 ,2,1,0.,12.0,0.,12.0,0.,12.0,0.,12.0
1981-08-27 07:11:27.910 ,2,1,0.,12.0,0.,12.0,0.,12.0,0.,12.0
1981-08-27 07:11:39.910 ,2,0,0.,12.0,0.,12.0,0.,12.0,0.,12.0
1981-08-27 07:11:51.910 ,2,0,0.,12.0,0.,12.0,0.,12.0,0.,12.0
1981-08-27 07:12:03.910 ,1,1,0.,12.0,0.,12.0,0.,12.0,0.,12.0
1981-08-27 07:12:15.910 ,1,1,0.,12.0,0.,12.0,0.,12.0,0.,12.0
1981-08-27 07:12:27.910 ,1,0,0.,12.0,0.,12.0,0.,12.0,0.,12.0
1981-08-27 07:12:39.910 ,1,0,0.,12.0,0.,12.0,0.,12.0,0.,12.0
1981-08-27 07:12:51.910 ,0,1,0.,12.0,0.,12.0,0.,12.0,0.,12.0
1981-08-27 07:13:03.910 ,0,1,0.,12.0,0.,12.0,0.,12.0,0.,12.0
1981-08-27 07:13:15.910 ,0,0,0.,12.0,0.,12.0,0.,12.0,0.,12.0
1981-08-27 07:13:27.910 ,0,0,0.,12.0,0.,12.0,0.,12.0,0.,12.0
1981-08-27 07:16:57.310 ,0,0,,0,,0,,0,,0
1981-08-27 07:17:09.310 ,0,0,0.,12.0,0.,12.0,0.,12.0,0.,12.0
1981-08-27 07:17:15.910 ,0,0,0.,12.0,0.,12.0,0.,12.0,0.,12.0
1981-08-27 07:17:27.910 ,0,0,0.,12.0,0.,12.0,0.,12.0,0.,12.0
1981-08-27 07:17:39.910 ,5,1,0.,12.0,0.,12.0,0.,12.0,0.,12.0
1981-08-27 07:17:51.910 ,5,1,0.,12.0,0.,12.0,0.,12.0,0.,12.0
1981-08-27 07:18:03.910 ,5,0,0.,12.0,0.,12.0,0.,12.0,0.,12.0
1981-08-27 07:18:15.910 ,5,0,0.,12.0,0.,12.0,0.,12.0,0.,12.0
1981-08-27 07:18:27.910 ,6,1,0.,12.0,0.,12.0,0.,12.0,0.,12.0
1981-08-27 07:18:39.910 ,6,1,0.,12.0,0.,12.0,0.,12.0,0.,12.0
1981-08-27 07:18:51.910 ,6,0,0.,12.0,0.,12.0,0.,12.0,0.,12.0
1981-08-27 07:19:03.910 ,6,0,0.,12.0,0.,12.0,0.,12.0,0.,12.0
1981-08-27 07:19:15.910 ,7,1,0.,12.0,0.,12.0,0.,12.0,0.,12.0
1981-08-27 07:19:27.910 ,7,1,0.,12.0,0.,12.0,0.,12.0,0.,12.0
1981-08-27 07:19:39.910 ,7,0,0.,12.0,0.,12.0,0.,12.0,0.,12.0
1981-08-27 07:19:51.910 ,7,0,0.,12.0,0.,12.0,0.,12.0,0.,12.0
1981-08-27 07:20:03.910 ,7,1,0.,12.0,0.,12.0,0.,12.0,0.,12.0
1981-08-27 07:20:15.910 ,7,1,0.,12.0,0.,12.0,0.,12.0,0.,12.0
1981-08-27 07:20:27.910 ,7,0,0.,12.0,0.,12.0,0.,12.0,0.,12.0
1981-08-27 07:20:39.910 ,7,0,0.,12.0,0.,12.0,0.,12.0,0.,12.0
1981-08-27 07:20:51.910 ,6,1,0.,12.0,0.,12.0,0.,12.0,0.,12.0
1981-08-27 07:21:03.910 ,6,1,0.,12.0,0.,12.0,0.,12.0,0.,12.0
1981-08-27 07:21:15.910 ,6,0,0.,12.0,0.,12.0,0.,12.0,0.,12.0
1981-08-27 07:21:27.910 ,6,0,0.,12.0,0.,12.0,0.,12.0,0.,12.0
1981-08-27 07:21:39.910 ,5,1,0.,12.0,0.,12.0,0.,12.0,0.,12.0
1981-08-27 07:21:51.910 ,5,1,0.,12.0,0.,12.0,0.,12.0,0.,12.0
1981-08-27 07:22:03.910 ,5,0,0.,12.0,0.,12.0,0.,12.0,0.,12.0